User: anonymous   Login
Location: Bishop�s Knoyle
(51.0728°N, 2.1714°W)
Time: 08:42:44
(UTC+00:00)
Language:

Cosmos 1782 Rocket - Orbit

View from above orbital plane
View from above orbital plane
View from above satellite
View from above satellite

Ground track
Ground track

The orbit data is extracted from the following two-line orbital elements,

1 16987U 86074B   20329.77935875 +.00000098 +00000-0 +89949-5 0  9994
2 16987 082.5184 213.5027 0019750 081.3553 320.9725 14.83086530823603
Epoch (UTC): 24 November 2020 18:42:16
Eccentricity: 0.0019750
inclination: 82.5184°
perigee height: 606 km
apogee height: 633 km
right ascension of ascending node: 213.5027°
argument of perigee: 81.3553°
revolutions per day: 14.83086530
mean anomaly at epoch: 320.9725°
orbit number at epoch: 82360

The dashed part of the orbit path shows where the satellite is in the earth's shadow,  

DLR